Preview of NWS' New Version of Forecast
This preview is not operational and should not be used for support decisions.
Latest weather observations around

Lafayette, Lafayette Regional Airport (KLFT)

Using English Units (Switch to International System of Units)
Date/ Time (CDT) Wind (mph) Vis. (mi) Weather Sky Cond. Temp (°F) Rel. Humidity Wind Chill (°F) Heat Index (°F) Pressure Precip. (in)
Air Dwpt 6 hour Altimeter (inHg) Sea level (inHg) 1 hr 3 hr 6 hr
Max Min
Jun 19 00:53 SSW 6 10 Clear CLR 79 75     88%   83 29.9 29.9      
Jun 18 23:53 SW 6 10 Clear CLR 79 75     88%   83 29.9 29.9      
Jun 18 22:53 SSW 8 10 Clear CLR 80 75     85%   85 29.89 29.89      
Jun 18 21:53 SW 9 10 Clear CLR 82 75     79%   89 29.88 29.88      
Jun 18 20:53 SW 9 10 Clear CLR 84 75     74%   92 29.87 29.87      
Jun 18 19:53 W 6 10 Clear CLR 88 71     57%   94 29.86 29.86      
Jun 18 18:53 W 5 10 Partly Cloudy SCT050 90 72     56%   97 29.85 29.85      
Jun 18 17:53 Calm 10 Partly Cloudy SCT050 91 72     54%   99 29.84 29.84      
Jun 18 16:53 3 10 Partly Cloudy SCT050 90 71     54%   96 29.86 29.86      
Jun 18 15:53 WNW 9 10 Partly Cloudy SCT046 91 71     52%   98 29.87 29.87      
Jun 18 14:53 WNW 5 10 Partly Cloudy SCT047 91 72     54%   99 29.9 29.89      
Jun 18 13:53 NW 6 10 Mostly Clear FEW040 89 72     57%   96 29.92 29.91      
Jun 18 12:53 WNW 8 10 Mostly Cloudy BKN037 BKN049 86 72     63%   92 29.94 29.94      
Jun 18 11:53 W 9 10 Mostly Cloudy BKN030 87 71     59%   93 29.95 29.94      
Jun 18 10:53 W 7 10 Mostly Cloudy BKN027 BKN033 85 74     70%   92 29.95 29.94      
Jun 18 09:53 W 10 10 Mostly Cloudy BKN018 BKN024 BKN030 83 75     77%   90 29.95 29.95      
Jun 18 08:53 WSW 6 10 Mostly Cloudy BKN005 80 76     87%   85 29.94 29.94      
Jun 18 08:05 Calm 10 Mostly Cloudy BKN006 77 76     96%   79 29.94        
Jun 18 07:53 Calm 8 Mostly Cloudy BKN004 BKN008 76 76     100%   78 29.93 29.93      
Jun 18 07:42 Calm 7 Cloudy OVC004 75 75     100%   77 29.93        
Jun 18 07:17 Calm 0.25 Fog VV002 74 74     100%   76 29.93        
Jun 18 07:08 Calm 1.5 Fog/Mist FEW002 74 74     100%   76 29.93        
Jun 18 07:00 Calm 5 Fog/Mist OVC002 74 74     100%   76 29.92        
Jun 18 06:53 Calm 2 Fog/Mist OVC002 74 74     100%   76 29.92 29.92      
Jun 18 06:44 Calm 0.5 Fog VV002 73 73     100%   75 29.92        
Jun 18 06:25 Calm 1 Fog/Mist VV002 74 74     100%   76 29.91        
Jun 18 06:14 Calm 0.25 Fog VV002 73 73     100%   75 29.92        
Jun 18 06:04 Calm 0.5 Fog VV002 73 73     100%   75 29.92        
Jun 18 05:53 Calm 1.25 Fog/Mist OVC002 73 73     100%   75 29.92 29.91      
Jun 18 05:48 Calm 1.25 Fog/Mist OVC002 73 73     100%   75 29.91        
Jun 18 05:36 Calm 0.5 Fog VV002 74 74     100%   76 29.91        
Jun 18 05:00 Calm 0.25 Fog VV002 73 73     100%   75 29.91        
Jun 18 04:53 Calm 0.5 Fog VV002 74 73     97%   76 29.91 29.91      
Jun 18 04:01 Calm 0.5 Fog VV002 74 74     100%   76 29.91        
Jun 18 03:53 Calm 1.25 Fog/Mist OVC002 74 74     100%   76 29.91 29.91      
Jun 18 03:51 Calm 1.75 Fog/Mist OVC002 73 73     100%   75 29.91        
Jun 18 03:44 Calm 4 Fog/Mist OVC002 74 74     100%   76 29.91        
Jun 18 03:36 Calm 2.5 Fog/Mist OVC002 74 74     100%   76 29.91        
Jun 18 03:06 Calm 7 Mostly Cloudy BKN002 75 74     96%   77 29.9        
Jun 18 02:53 Calm 5 Fog/Mist FEW002 74 74     100%   76 29.9 29.9      
Jun 18 01:53 Calm 9 Clear CLR 75 74     96%   77 29.91 29.91      
Jun 18 00:53 Calm 10 Clear CLR 75 74     96%   77 29.91 29.91      
Jun 17 23:53 Calm 10 Clear CLR 75 74     96%   77 29.92 29.92      
Jun 17 22:53 Calm 10 Clear CLR 76 74     94%   78 29.92 29.92      
Jun 17 21:53 Calm 10 Mostly Cloudy FEW019 BKN046 79 74     85%   83 29.92 29.91      
Jun 17 20:53 S 3 10 Partly Cloudy FEW049 SCT065 SCT080 80 74     82%   85 29.9 29.9      
Jun 17 19:53 Calm 10 Partly Cloudy SCT065 81 74     79%   86 29.89 29.89      
Jun 17 18:53 SSW 3 10 Partly Cloudy SCT021 81 73     77%   86 29.89 29.89     0
Jun 17 17:53 S 5 10 Partly Cloudy SCT022 82 73     74%   87 29.88 29.88      
Jun 17 16:53 S 6 10 Partly Cloudy SCT026 81 73     77%   86 29.89 29.89      
Jun 17 15:53 3 10 Mostly Clear FEW110 81 75     82%   87 29.88 29.87 0 0  
Jun 17 14:53 6 9 Light Rain FEW021 FEW070 BKN110 79 74     85%   83 29.93 29.93 0    
Jun 17 13:53 S 7 10 Partly Cloudy SCT110 81 73     77%   86 29.94 29.93      
Jun 17 12:53 SSW 10 10 Clear CLR 80 75     85%   85 29.94 29.94     0
Jun 17 11:53 SSW 6 10 Partly Cloudy SCT110 78 74     87%   80 29.96 29.96 0    
Jun 17 10:53 S 6 10 Light Rain BKN095 BKN110 75 74     96%   77 29.94 29.94 0    
Jun 17 09:53 S 7 5 Rain and Fog/Mist BKN110 74 73     97%   76 29.94 29.93 0 0  
Jun 17 08:17 S 3 4 Light Rain and Fog/Mist BKN011 BKN021 OVC080 73 72     96%   75 29.93   0    
Jun 17 07:59 SW 6 3 Light Rain and Fog/Mist BKN013 BKN034 OVC095 73 71     94%   74 29.94   0    
Jun 17 07:56 SSW 7 1 Light Rain and Fog/Mist BKN013 BKN034 OVC095 73 71     94%   74 29.95   0    
Jun 17 07:53 SW 6 0.75 Heavy Rain and Fog/Mist BKN013 BKN034 OVC095 73 71     94%   74 29.95 29.94 0    
Jun 17 07:51 SSW 6 0.75 Heavy Rain and Fog/Mist BKN013 BKN034 OVC095 73 72     94%   75 29.95   0    
Jun 17 07:47 W 6 1.75 Heavy Rain and Fog/Mist BKN015 BKN042 OVC090 73 72     94%   75 29.94   0    
Jun 17 07:23 WNW 5 10 Light Rain BKN015 BKN037 OVC090 73 71     94%   74 29.95   0    
Jun 17 06:53 WNW 3 10 Mostly Cloudy FEW042 BKN120 74 71     91%   75 29.95 29.94      
Jun 17 05:53 Calm 10 Partly Cloudy SCT120 74 71     91%   75 29.93 29.93      
Jun 17 04:53 Calm 10 Mostly Clear FEW120 72 71     97%   73 29.92 29.91      
Jun 17 03:53 ENE 5 10 Clear CLR 72 70     93%   73 29.9 29.9      
Jun 17 02:53 5 10 Clear CLR 72 69     91%   73 29.89 29.89      
Jun 17 01:53 Calm 10 Clear CLR 72 69     91%   73 29.94 29.94      
Jun 17 00:53 Calm 10 Clear   72 69     91%   73 29.98 29.98     0
Jun 16 23:53 Calm 10 Clear CLR 71 68     90%   72 29.98 29.98      
Jun 16 22:53 E 3 10 Clear CLR 72 68     87%   73 29.98 29.98      
Jun 16 21:53 Calm 10 Clear CLR 72 68     87%   73 29.95 29.95   0  
Jun 16 20:53 3 10 Clear CLR 73 68     84%   74 29.97 29.97      
Jun 16 19:53 ENE 6 10 Clear CLR 74 68     82%   75 29.99 29.98 0    
Jun 16 18:53 N 15 9 Light Rain SCT050 BKN070 BKN110 74 69     85%   75 29.98 29.97 0   0
Jun 16 18:02   10 Cloudy BKN034 BKN044 OVC055 77 67     71%   78 29.99        
Jun 16 17:53   10 Mostly Cloudy FEW032 SCT042 BKN055 78 67     69%   79 29.98 29.97      
Jun 16 16:53 SSW 11 10 Mostly Cloudy BKN042 90 72     56%   97 29.92 29.92      
Jun 16 15:53 S 13 10 Mostly Cloudy BKN041 92 74     56%   102 29.94 29.93      
Jun 16 14:53 SSW 10 10 Mostly Clear FEW043 91 75     60%   102 29.95 29.94      
Jun 16 13:53 S 10 10 Mostly Cloudy BKN040 90 73     58%   98 29.94 29.94      
Jun 16 12:53   10 Partly Cloudy SCT039 90 74     59%   99 29.96 29.96      
Jun 16 11:53 SSW 9 10 Mostly Cloudy BKN033 88 73     61%   96 29.99 29.98      
Jun 16 10:53 S 9 10 Mostly Cloudy BKN030 87 73     63%   95 30 30      
Jun 16 09:53 S 8 10 Mostly Cloudy BKN033 86 76     72%   96 30 30      
Jun 16 08:53 S 6 10 Mostly Clear FEW019 84 77     80%   94 30.01 30      
Jun 16 07:53 Calm 10 Clear CLR 79 78     97%   83 29.98 29.98      
Jun 16 06:53 Calm 10 Clear CLR 76 76     100%   78 29.97 29.97      
Jun 16 05:53 Calm 6 Fog/Mist CLR 75 75     100%   77 29.97 29.96      
Jun 16 05:16 Calm 6 Fog/Mist CLR 76 76     100%   78 29.96        
Jun 16 05:14 Calm 1.25 Fog/Mist CLR 76 76     100%   78 29.96        
Jun 16 05:00 Calm 6 Fog/Mist CLR 76 76     100%   78 29.96        
Jun 16 04:53 Calm 2 Fog/Mist CLR 76 76     100%   78 29.96 29.96      
Jun 16 04:46 Calm 1.75 Fog/Mist CLR 76 76     100%   78 29.96        
Jun 16 03:53 Calm 9 Clear CLR 78 76     93%   80 29.95 29.94      
Jun 16 02:53 S 3 10 Clear CLR 79 76     90%   83 29.94 29.94      
Jun 16 01:53 S 5 10 Clear CLR 79 77     94%   83 29.95 29.94      
May 15 10:53 NNE 9 10 Mostly Clear FEW075 90 69     50%   95 29.96 29.96      
May 14 11:53 3 10 Clear CLR 89 66     47%   92 30.02 30.02      
Notice The following observation data may not be complete
May 14 06:23   0.25 Fog VV002          %              
May 14 05:11 Calm 0.25 Fog VV002 70 70     100%     30        
May 13 05:53 Calm 3 Fog/Mist BKN002 OVC008 71 71     100%   73 30.04 30.04      
May 12 15:53 5 10 Clear CLR 90 65     44%   92 30 30      
May 11 20:53 S 6 10 Clear CLR 78 67     69%   79 30.03 30.02      
May 11 18:53 S 10 10 Clear CLR 83 60     46%   83 30 30      
May 11 09:16 S 9 10 Mostly Cloudy BKN021 79 70     74%   82 30.08        
Notice The following observation data may not be complete
Jun 12 04:10   10 Mostly Cloudy SCT012 BKN020          %              
Jun 11 20:30 6 10 Partly Cloudy SCT013 SCT027 SCT049 76 76     100%   78 29.97        
Jun 11 14:34 SE 9 10 Mostly Cloudy FEW043 FEW060 BKN070 83 76     79%   91 29.98        
Jun 11 13:00 S 10 10 Mostly Cloudy BKN033 BKN041 BKN050 85 75     72%   93 29.98        
Jun 11 06:00 ENE 3 10 Mostly Cloudy BKN017 BKN100 70 70     100%     29.97        
Jun 10 08:53 5 10 Clear CLR 77 71     82%   78 29.98 29.98      
Jun 09 09:53 3 10 Clear CLR 76 63     64%   76 29.95 29.95      
Jun 09 01:53 ENE 3 10 Clear CLR 65 60     84%     29.91 29.91      
Jun 08 14:53 NNE 9 10 Clear CLR 82 58     44%   82 29.91 29.91      
Jun 07 11:43 NNE 9 10 Partly Cloudy SCT019 79 71     77%   82 29.86        
Jun 06 09:34 N 7 10 Mostly Cloudy FEW009 SCT026 BKN110 76 73     91%   77 29.74   0    
Jun 06 04:53 Calm 10 Mostly Cloudy FEW006 BKN019 73 73     100%   75 29.71 29.71